Spokane Felts, WA
on Sunday, November 4, 2012

Sunday
Previous Day Next Day
Daily Summary
 ActualAverageRecord
Temperature
Mean Temperature °F 41°F  
Max Temperature 60°F 49°F 60°F (2007)
Min Temperature 49°F 33°F 16°F (2003)
Degree Days
Heating Degree Days 10 24  
Month to date heating degree days 54 94  
Since 1 July heating degree days 613 831  
Cooling Degree Days 0 0  
Month to date cooling degree days 0 0  
Year to date cooling degree days 509 406  
Growing Degree Days5 (Base °F )  
Moisture
Dew Point 47°F   
Average Humidity 77    
Maximum Humidity 89    
Minimum Humidity 64    
Precipitation
Precipitation T in 0.07 in 0.25 in (2006)
Month to date precipitation 0.42 0.26  
Year to date precipitation 16.01 13.21  
Wind
Wind Speed 2 mph   
Max Wind Speed 14 mph   
Max Gust Speed 17 mph   
Visibility 10 miles   
Events     

Key: T is trace of precipitation, MM is missing value
Source: NWS Daily Summary
Time(PST)TemperatureDew PointHumidity Pressure Visibility Wind DirectionWind SpeedGust SpeedPrecipitationEvents Conditions
12:53 AM 52.0°F 46.0°F 80% 30.19 in 10.0 miles Calm Calm - N/A   Overcast
1:53 AM 52.0°F 46.9°F 83% 30.20 in 10.0 miles Calm Calm - N/A   Overcast
1:36 AM 50.0°F 46.4°F 87% 30.21 in 10.0 miles Calm Calm - N/A   Mostly Cloudy
1:53 AM 50.0°F 46.9°F 89% 30.22 in 10.0 miles Calm Calm - N/A   Scattered Clouds
2:32 AM 50.0°F 46.4°F 87% 30.21 in 10.0 miles NNE 3.5 mph - N/A   Overcast
2:43 AM 50.0°F 46.4°F 87% 30.22 in 10.0 miles Calm Calm - N/A   Overcast
2:53 AM 50.0°F 46.9°F 89% 30.22 in 10.0 miles Calm Calm - N/A   Overcast
3:11 AM 50.0°F 46.4°F 87% 30.22 in 10.0 miles Calm Calm - N/A   Overcast
3:53 AM 50.0°F 46.9°F 89% 30.22 in 7.0 miles Calm Calm - N/A   Mostly Cloudy
4:53 AM 50.0°F 46.9°F 89% 30.25 in 9.0 miles Calm Calm - N/A   Overcast
5:53 AM 50.0°F 46.0°F 86% 30.26 in 10.0 miles ENE 3.5 mph - N/A   Overcast
6:53 AM 50.0°F 46.9°F 89% 30.29 in 10.0 miles Calm Calm - 0.00 in   Overcast
7:53 AM 52.0°F 48.0°F 86% 30.31 in 10.0 miles Calm Calm - N/A   Overcast
8:53 AM 54.0°F 48.0°F 80% 30.30 in 10.0 miles Calm Calm - N/A   Overcast
9:53 AM 55.9°F 48.9°F 77% 30.31 in 10.0 miles Calm Calm - N/A   Overcast
10:53 AM 57.9°F 48.0°F 70% 30.31 in 10.0 miles South 6.9 mph - N/A   Overcast
11:53 AM 57.9°F 48.0°F 70% 30.31 in 10.0 miles Calm Calm - N/A   Overcast
12:53 PM 60.1°F 48.0°F 64% 30.30 in 10.0 miles South 6.9 mph - N/A   Overcast
1:53 PM 60.1°F 48.0°F 64% 30.31 in 10.0 miles SSW 5.8 mph - N/A   Overcast
2:53 PM 60.1°F 48.0°F 64% 30.32 in 10.0 miles Calm Calm - N/A   Overcast
3:53 PM 57.9°F 50.0°F 75% 30.32 in 10.0 miles Calm Calm - N/A   Overcast
4:53 PM 57.0°F 50.0°F 77% 30.31 in 10.0 miles Calm Calm - N/A   Overcast
5:53 PM 57.9°F 48.0°F 70% 30.29 in 10.0 miles ESE 4.6 mph - N/A   Overcast
6:53 PM 57.9°F 46.9°F 67% 30.31 in 10.0 miles Calm Calm - N/A   Overcast
7:53 PM 55.9°F 48.0°F 75% 30.29 in 10.0 miles Calm Calm - N/A   Overcast
8:53 PM 57.0°F 46.9°F 69% 30.28 in 10.0 miles Calm Calm - N/A   Overcast
9:50 PM 57.2°F 46.4°F 67% 30.29 in 10.0 miles West 3.5 mph - N/A   Overcast
9:53 PM 57.9°F 46.9°F 67% 30.29 in 10.0 miles West 4.6 mph - N/A   Overcast
10:53 PM 57.9°F 46.9°F 67% 30.26 in 10.0 miles SW 6.9 mph - N/A   Mostly Cloudy
Moon Phase
Nov. 04 Nov. 06 Nov. 13 Nov. 20 Nov. 28
Sunrise:06:38 AM (PST) Moon Rise:09:05 PM (PST)11/4
Sunset:04:26 PM (PST) Moon Set:11:29 AM (PST)11/4

Copyright © 2014 The Weather Underground, Inc.